Location: *
(58.7167°N, 26.1833°E)
Time: 19:55:29
(UTC+00:00)

Cosmos 1898 Rocket - Pass Details

Date: 25 August 2019
Orbit: 755 x 783 km, 74.0° (Epoch: 15 September)

Event Time Altitude Azimuth Distance (km) Brightness Sun altitude
Rises 19:31:31 0° 215° (SW) 3,236 6.6 -13.0°
Reaches altitude 10° 19:33:54 10° 218° (SW) 2,309 5.9 -13.2°
Maximum altitude 19:39:08 74° 304° (WNW) 799 3.7 -13.6°
Drops below altitude 10° 19:44:23 10° 30° (NNE) 2,305 6.3 -14.1°
Sets 19:46:45 0° 32° (NNE) 3,231 7.0 -14.3°
